XW-2D (40907 NORAD) Tracking and Keplerian Element Data

This shows tracking and keplerian element data for the satellite.

Feedback or suggestion? Click here.




ElementValue
Catalog40907
NameXW-2D
Epoch Orbit28176
Epoch Day298.04697926
Epoch Year2020
RAAN297.272
Inclination97.4803
Eccentricity0.0012557
Argument of Perigee287.7758
Mean Anonmoly149.9039
Mean Motion15.16482435
Decay Rate9.72E-06
L11 40907U 15049J 20298.04697926 .00000972 00000-0 53286-4 0 9999
L22 40907 97.4803 297.2720 0012557 287.7758 149.9039 15.16482435281764

Live tracking and technical data element details for XW-2D (NORAD 40907). XW-2D can be tracked NOW for your location showing map with azimuth and elevation plus other details from your city location.

Track the satellite on the map from your city or location and see movement details for azimuth, elevation, latitude, longitude, range, height, and movement on the map or in text.







IsCatalogInMostPopularTable: catalog: 40907, numindb: 364
Update: records affected: 1



GetName: 40907 XW-2D

Hit Count: updated at: Sun, 25 Oct 2020 08:42:01 GMT